User: anonymous   Login
Location: Caltech
(34.1382°N, 118.1253°W)
Time: 10:36:49
(UTC-07:00)
Language:

Lacrosse 5 - Orbit

View from above orbital plane
View from above orbital plane
View from above satellite
View from above satellite

Ground track
Ground track

The orbit data is extracted from the following two-line orbital elements,

1 28646U 05016A   18111.87568153 0.00000000  00000-0  00000-0 0    06
2 28646  57.0110  54.5556 0003000  80.4863 279.5136 14.51907682    00
Epoch (UTC): 21 April 2018 21:00:58
Eccentricity: 0.0003000
inclination: 57.0110°
perigee height: 717 km
apogee height: 721 km
right ascension of ascending node: 54.5556°
argument of perigee: 80.4863°
revolutions per day: 14.51907682
mean anomaly at epoch: 279.5136°
orbit number at epoch: 0

The dashed part of the orbit path shows where the satellite is in the earth's shadow,  

DLR